SCP
0 0 -0 0 -0 -0 0 0 0 0 0 0 0 0 0 0 0 0 -0 -0 -0 -0 -0 -0 0 0 0 0 0 0 0 0 0 0 0 0 0 0 0 0 0 0 0 0
0 0 -0 -0 0 0 0 0 0 0 0 0 0 0 0 0 0 -0 -0 -0 -0 -0 -0 -0 0 0 0 0 0 0 0 0 0 0 0 0 0 0 0 0 0 0 0 0
0 0 -0 -0 0 0 0 0 0 0 0 0 -0 0 -0 0 0 0 0 -0 0 -0 0 -0 0 0 0 0 0 0 0 0 0 0 0 0 0 0 0 0 0 0 0 0
0 0 0 0 0 0 0 -0 0 -0 0 0 0 0 -0 -0 0 0 0 0 0 0 0 -0 0 0 0 0 0 0 0 0 0 0 0 0 0 0 0 0 0 0 0 0
0 0 0 0 0 0 -0 -0 -0 0 0 0 0 0 -0 -0 -0 0 0 0 0 0 0 0 0 0 0 0 0 0 0 0 0 0 0 0 0 0 0 0 0 0 0 0
0 0 0 -0 -0 0 0 0 -0 0 0 0 -0 -0 0 0 -0 0 0 0 0 0 0 0 0 0 0 0 0 0 0 0 0 0 0 0 0 0 0 0 0 0 0 0
0 0 0 -0 0 0 0 -0 -0 -0 0 0 -0 0 0 -0 -0 0 0 0 0 0 0 0 0 0 0 0 0 0 0 0 0 0 0 0 0 0 0 0 0 0 0 0
0 0 0 0 0 0 -0 -0 -0 -0 0 -0 0 0 -0 -0 0 0 0 0 -0 -0 -0 0 0 0 0 0 0 0 0 0 0 0 0 0 0 0 0 0 0 0 0 0
0 0 0 0 0 0 0 0 -0 -0 0 0 0 0 -0 -0 -0 0 0 0 0 0 -0 -0 -0 -0 -0 -0 0 0 0 0 0 0 0 0 0 0 0 0 0 0 0 0
0 0 0 -0 -0 -0 0 0 0 0 0 0 0 0 0 0 -0 -0 -0 -0 0 0 -0 -0 -0 -0 -0 -0 -0 -0 -0 -0 -0 0 0 0 0 0 0 0 0 0 0 0
0 -0 0 0 0 -0 0 0 0 0 0 0 0 0 0 0 0 -0 -0 -0 -0 -0 -0 -0 -0 -0 -0 -0 -0 -0 -0 -0 -0 -0 -0 0 0 0 0 0 0 0 0 0
0 0 0 0 0 0 0 0 0 0 0 0 0 0 0 0 0 0 -0 -0 -0 -0 -0 -0 -0 -0 -0 -0 -0 -0 -0 -0 -0 -0 -0 -0 -0 0 0 0 0 0 0 0
0 0 0 0 0 0 0 0 0 0 0 0 0 0 0 0 0 0 0 0 0 -0 -0 -0 -0 -0 -0 -0 -0 -0 -0 -0 -0 -0 -0 -0 -0 -0 0 0 0 0 0 0
0 0 0 0 0 0 0 0 0 0 0 0 0 0 0 0 0 0 0 0 0 0 0 -0 -0 -0 -0 0 0 0 0 -0 -0 0 0 0 0 0 0 0 0 0 0 0
0 0 0 0 0 0 0 0 0 0 0 0 0 0 0 0 0 0 0 0 0 0 0 0 0 -0 -0 -0 0 0 0 0 0 0 0 0 0 0 0 0 0 0 0 0
0 0 0 0 0 0 0 0 0 0 0 0 0 0 0 0 0 0 0 0 0 0 0 0 -0 -0 0 0 0 0 0 0 0 0 0 0 0 0 0 0 0 0 0 0
0 0 0 0 0 0 0 0 0 0 0 0 0 0 0 0 0 0 0 0 0 0 0 0 -0 0 0 0 0 0 0 0 0 0 0 0 0 0 0 0 0 0 0 0
0 0 0 0 0 0 0 0 0 0 0 0 0 0 0 0 0 0 0 0 0 0 0 0 0 0 0 0 0 0 0 0 0 0 0 0 0 0 0 0 0 0 0 0
0 -0 -0 -0 -0 0 0 0 0 0 0 0 0 0 0 0 0 0 0 0 0 0 0 0 0 0 0 0 0 0 0 0 0 0 0 0 0 0 0 0 0 0 0 0
-0 0 -0 -0 -0 0 0 0 0 0 0 0 0 0 0 0 0 0 0 0 0 0 0 0 0 0 0 0 0 0 0 0 0 0 0 0 0 0 0 0 0 0 0 0
0 0 0 0 0 0 0 0 0 0 0 0 0 0 0 0 0 0 0 0 0 0 0 0 0 0 0 0 0 0 0 0 0 0 0 0 0 0 0 0 0 0 0 0
0 0 0 0 0 0 0 0 0 0 0 0 0 0 0 0 0 0 0 0 0 0 0 0 0 0 0 0 0 0 0 0 0 0 0 0 0 0 0 0 0 0 0 0
0 0 0 0 0 0 0 0 0 0 0 0 0 0 0 0 0 0 0 0 0 0 0 0 0 0 0 0 0 0 0 0 0 0 0 0 0 0 0 0 0 0 0 0
0 0 0 0 0 0 0 0 0 0 0 0 0 0 0 0 0 0 0 0 0 0 0 0 0 0 0 0 0 0 0 0 0 0 0 0 0 0 0 0 0 0 0 0
0 0 0 0 0 0 0 0 0 0 0 0 0 0 0 0 0 0 0 0 0 0 0 0 0 0 0 0 0 0 0 0 0 0 0 0 0 0 0 0 0 0 0 0
0 0 0 0 0 0 0 0 0 0 0 0 0 0 0 0 0 0 0 0 0 0 0 0 0 0 0 0 0 0 0 0 0 0 0 0 0 0 0 0 0 0 0 0
0 0 0 0 0 0 0 0 0 0 0 0 0 0 0 0 0 0 0 0 0 0 0 0 0 0 0 0 0 0 0 0 0 0 0 0 0 0 0 0 0 0 0 0
Wind_Speed_500mb
17 19 10 33 40 41 22 23 13 10 9 28 12 11 17 29 38 42 51 57 55 53 53 53 53 54 52 53 43 40 39 38 35 29 30 30 29 31 31 34 33 31 29 34
8 15 1 12 22 22 25 22 22 17 22 6 7 12 19 30 34 37 47 51 50 49 51 53 52 53 55 62 54 51 45 40 29 21 18 19 18 19 21 29 26 37 37 36
9 5 13 14 12 9 5 6 8 7 11 4 6 7 7 23 33 36 43 47 48 46 46 47 51 52 56 57 55 56 55 48 41 31 22 14 10 10 11 10 13 28 26 42
7 8 5 14 5 6 10 15 14 11 6 5 8 8 15 18 21 28 34 41 45 47 47 47 46 48 49 53 55 55 54 52 47 39 33 22 11 5 11 12 14 12 18 23
3 5 13 14 4 8 7 12 9 16 2 3 3 10 8 19 19 21 25 29 34 38 42 45 50 51 51 51 54 56 55 49 43 39 34 28 25 18 7 6 19 22 18 17
5 7 8 14 8 6 6 7 6 9 7 7 13 3 6 7 13 18 23 29 35 38 37 38 43 46 47 53 54 58 53 49 43 37 33 31 26 20 15 10 2 8 18 25
8 5 14 12 8 10 8 9 4 12 14 13 6 6 14 7 9 14 21 28 34 38 43 42 39 39 44 46 52 48 44 43 40 38 36 31 25 18 14 11 10 6 2 10
4 5 13 13 9 9 11 5 5 15 20 21 13 18 16 11 7 11 16 22 32 40 44 43 42 41 42 42 41 39 40 40 41 39 36 30 27 22 16 11 8 6 5 3
13 11 7 25 13 21 14 13 8 13 21 21 26 23 19 13 9 9 14 22 29 35 41 43 43 44 43 43 38 35 32 31 30 30 30 28 25 23 19 17 12 10 7 5
5 6 8 23 36 46 44 24 19 14 23 31 30 29 24 18 12 8 11 16 25 32 39 42 43 42 41 39 38 36 30 27 26 24 24 23 25 25 23 20 17 13 11 8
7 13 14 22 13 14 18 17 20 16 24 32 32 34 28 24 16 8 3 11 18 26 33 37 38 37 35 32 31 31 31 31 29 25 22 22 23 22 22 22 22 20 16 13
9 16 5 12 13 29 22 23 19 22 28 33 34 34 32 27 20 11 2 7 13 18 25 29 32 32 30 30 29 28 29 29 29 26 23 21 18 17 20 19 18 16 17 16
11 23 20 35 26 29 28 24 21 26 30 34 37 36 34 30 23 14 6 4 12 19 24 30 32 31 30 29 28 27 28 28 27 26 26 22 20 19 13 14 18 18 17 18
23 26 27 33 23 13 20 25 22 23 29 32 34 39 38 33 25 18 12 7 12 18 22 26 32 34 33 32 30 28 27 28 28 28 25 25 25 22 21 20 17 16 19 17
11 22 31 40 38 38 33 27 30 34 35 39 39 41 42 38 30 20 17 13 14 19 24 27 33 35 36 33 30 30 30 32 32 30 29 26 25 26 25 24 23 20 18 18
42 38 38 42 39 32 29 26 34 38 39 40 44 47 44 37 30 26 22 19 19 22 26 29 34 38 38 37 35 34 33 33 33 33 32 29 27 25 27 28 26 23 20 17
38 26 29 31 27 27 29 30 33 37 38 39 42 44 44 42 36 30 27 25 24 27 29 34 36 39 40 39 37 34 31 32 32 33 34 32 30 27 27 28 29 28 23 20
28 26 27 33 41 38 22 21 26 31 33 33 38 43 44 42 36 29 28 28 29 31 33 38 40 40 38 33 31 31 30 31 33 34 35 35 32 30 28 28 28 29 28 26
22 18 19 24 25 25 30 22 19 21 26 28 31 38 38 34 31 29 29 31 31 34 39 39 39 34 30 30 30 30 30 31 32 33 35 35 34 33 31 29 28 29 30 30
16 13 17 18 17 12 16 23 22 20 22 23 25 28 28 27 26 27 29 30 32 37 40 37 31 29 28 28 30 29 29 29 30 30 32 33 33 32 32 32 31 28 29 32
11 10 17 17 12 9 4 2 7 12 16 16 15 18 19 19 22 24 28 33 36 35 30 28 28 28 29 29 30 30 29 28 28 28 27 28 31 30 30 30 33 34 30 29
10 12 17 17 17 14 13 16 18 17 14 13 12 10 10 14 20 26 31 31 31 26 26 27 30 31 31 32 32 32 31 30 29 28 27 27 29 29 29 30 31 32 35 35
12 11 12 14 16 18 20 20 19 16 11 7 1 6 13 20 24 24 23 20 22 26 27 30 34 35 35 35 35 35 34 34 33 32 31 29 28 28 27 28 29 30 32 33
11 8 8 12 13 17 15 16 13 8 5 9 13 16 18 17 18 15 16 21 25 28 29 30 31 32 34 34 34 33 33 34 35 34 33 32 30 29 28 26 26 27 30 32
11 10 9 9 9 7 7 8 10 12 14 15 14 12 10 10 12 16 20 21 24 25 25 27 28 28 28 27 27 28 28 30 31 33 33 33 32 32 29 28 25 24 25 28
15 12 11 10 9 11 14 15 16 16 14 10 8 8 10 14 16 17 17 18 18 19 19 20 21 22 23 23 22 22 22 23 24 25 27 28 31 31 31 30 29 27 25 26
14 13 12 13 14 15 15 14 12 10 9 9 11 14 15 15 15 14 15 15 16 18 20 21 21 21 21 20 20 18 18 17 17 17 19 21 23 26 28 28 29 29 27 26
Wind_Direction_500mb
251 270 260 275 276 282 267 240 235 268 264 309 311 326 330 336 351 0 1 9 16 23 27 36 48 62 74 78 81 85 98 110 112 131 149 163 172 178 194 212 228 230 235 230
271 272 25 260 253 252 253 252 245 272 288 208 263 349 354 348 357 3 4 10 18 24 29 36 46 57 66 73 73 77 85 88 93 105 122 132 150 187 203 209 207 216 216 230
258 244 324 323 236 199 247 236 178 230 233 183 292 352 350 353 3 5 14 16 19 23 29 36 43 50 60 68 75 77 79 80 82 81 82 91 124 162 181 194 206 226 224 232
262 4 348 242 239 173 214 244 225 287 262 214 229 173 17 14 15 17 21 23 24 27 33 39 50 56 61 67 71 73 72 72 72 73 77 79 90 140 210 227 220 209 208 220
186 206 294 318 292 184 151 291 215 228 253 290 282 191 294 2 17 24 29 34 34 33 36 39 44 49 56 63 67 71 70 70 68 68 70 73 73 79 99 237 249 250 245 235
136 188 221 238 279 180 114 308 235 160 195 174 159 59 262 8 21 33 33 32 33 33 36 43 45 47 53 56 56 57 57 58 59 59 58 60 60 60 60 65 84 232 247 254
215 276 289 245 215 151 66 249 193 184 190 194 204 186 140 114 60 37 36 35 33 31 33 37 40 43 48 53 56 55 54 52 51 50 50 50 50 53 53 50 47 39 267 244
122 212 280 160 117 165 216 251 271 195 195 206 193 156 143 130 81 51 42 35 30 29 32 34 37 40 43 46 48 49 49 46 43 42 41 36 36 35 34 39 39 37 33 356
189 211 233 200 231 221 265 266 273 233 202 194 176 172 161 149 129 89 52 36 29 28 30 32 36 38 39 41 41 41 41 43 44 41 36 35 31 26 22 21 17 15 7 5
67 286 252 241 248 267 282 275 288 258 207 194 191 179 171 168 155 108 58 37 33 30 29 30 31 32 34 36 35 36 34 32 32 32 32 31 26 19 14 11 10 3 353 345
260 271 258 266 229 333 341 299 257 234 212 203 196 190 184 177 176 166 72 31 28 28 26 24 23 24 26 27 28 28 28 25 21 17 15 13 10 12 13 3 358 355 349 338
238 249 217 285 291 320 309 300 267 229 209 207 209 202 192 189 190 195 198 18 9 14 20 18 17 17 15 11 9 7 10 11 10 8 1 355 357 359 352 355 352 340 336 327
256 296 288 292 276 283 287 293 270 238 228 217 210 208 206 202 203 205 226 329 357 360 1 2 2 4 4 0 355 353 352 353 354 353 352 349 336 329 326 338 333 333 325 319
299 304 288 283 278 290 290 295 268 244 231 228 222 212 211 212 214 218 241 299 337 340 335 343 348 345 352 349 344 341 338 336 335 335 334 330 330 318 307 306 305 314 316 320
322 319 293 291 283 282 287 268 249 236 227 220 218 219 217 216 217 221 248 280 310 320 320 328 334 333 336 337 334 328 324 320 317 313 313 314 313 309 302 292 292 294 303 300
311 307 297 283 282 289 279 258 246 243 233 227 221 218 218 221 219 228 250 273 297 309 309 314 321 323 326 327 325 320 316 310 308 307 304 302 300 297 295 289 281 280 282 287
319 323 315 306 297 287 275 269 264 257 247 237 232 224 220 220 223 233 253 272 292 302 302 309 315 318 320 321 319 317 315 312 311 309 307 304 295 289 285 283 276 271 266 264
310 305 308 303 292 270 266 268 264 260 254 249 238 227 223 225 230 241 257 279 294 298 302 308 312 314 313 313 313 314 313 309 305 302 299 299 296 289 281 276 271 262 260 253
322 320 324 335 327 286 254 275 270 253 244 239 234 227 226 228 236 249 267 282 290 295 303 308 309 308 308 310 311 313 310 307 303 299 295 290 287 284 279 273 269 261 253 251
338 344 343 342 335 314 273 274 270 229 221 218 208 211 218 225 241 260 275 284 295 300 303 303 303 306 307 308 309 309 307 306 304 300 293 289 285 279 274 269 267 266 257 248
3 16 7 1 358 356 351 187 171 183 180 167 172 197 216 237 256 271 284 293 297 299 298 299 301 302 303 301 300 301 301 300 301 301 297 289 285 282 275 268 262 258 258 254
37 33 26 37 51 59 82 105 111 110 123 155 176 199 232 262 278 289 294 296 295 295 300 301 300 300 299 298 295 293 291 292 294 297 300 296 292 286 279 271 264 258 251 247
36 39 49 64 74 87 99 106 114 122 123 127 155 296 298 297 297 297 294 294 295 300 302 300 299 300 299 297 293 289 287 286 286 287 290 291 292 289 283 276 269 259 254 247
26 43 64 71 83 88 92 94 92 78 27 341 326 313 304 299 301 303 301 300 302 306 308 307 306 304 302 300 296 291 288 284 283 282 281 281 281 281 282 279 273 267 258 250
48 71 83 85 74 70 59 38 14 359 347 334 323 316 316 317 314 311 312 315 316 316 317 316 316 316 314 311 307 302 295 288 284 281 279 276 275 274 273 272 271 266 259 253
65 72 69 53 30 9 1 356 346 339 340 345 349 345 338 336 338 338 336 335 335 335 336 338 339 340 340 338 333 326 317 307 297 288 282 277 273 271 269 265 264 261 257 249
41 35 26 18 6 355 348 344 347 355 7 7 357 352 353 355 357 2 7 13 14 15 15 14 12 11 10 10 8 4 356 344 332 318 301 288 279 273 269 264 260 257 254 248
Wind_Speed_850mb
17 19 10 33 40 41 22 23 13 10 9 28 12 11 17 29 38 42 51 57 55 53 53 53 53 54 52 53 43 40 39 38 35 29 30 30 29 31 31 34 33 31 29 34
8 15 1 12 22 22 25 22 22 17 22 6 7 12 19 30 34 37 47 51 50 49 51 53 52 53 55 62 54 51 45 40 29 21 18 19 18 19 21 29 26 37 37 36
9 5 13 14 12 9 5 6 8 7 11 4 6 7 7 23 33 36 43 47 48 46 46 47 51 52 56 57 55 56 55 48 41 31 22 14 10 10 11 10 13 28 26 42
7 8 5 14 5 6 10 15 14 11 6 5 8 8 15 18 21 28 34 41 45 47 47 47 46 48 49 53 55 55 54 52 47 39 33 22 11 5 11 12 14 12 18 23
3 5 13 14 4 8 7 12 9 16 2 3 3 10 8 19 19 21 25 29 34 38 42 45 50 51 51 51 54 56 55 49 43 39 34 28 25 18 7 6 19 22 18 17
5 7 8 14 8 6 6 7 6 9 7 7 13 3 6 7 13 18 23 29 35 38 37 38 43 46 47 53 54 58 53 49 43 37 33 31 26 20 15 10 2 8 18 25
8 5 14 12 8 10 8 9 4 12 14 13 6 6 14 7 9 14 21 28 34 38 43 42 39 39 44 46 52 48 44 43 40 38 36 31 25 18 14 11 10 6 2 10
4 5 13 13 9 9 11 5 5 15 20 21 13 18 16 11 7 11 16 22 32 40 44 43 42 41 42 42 41 39 40 40 41 39 36 30 27 22 16 11 8 6 5 3
13 11 7 25 13 21 14 13 8 13 21 21 26 23 19 13 9 9 14 22 29 35 41 43 43 44 43 43 38 35 32 31 30 30 30 28 25 23 19 17 12 10 7 5
5 6 8 23 36 46 44 24 19 14 23 31 30 29 24 18 12 8 11 16 25 32 39 42 43 42 41 39 38 36 30 27 26 24 24 23 25 25 23 20 17 13 11 8
7 13 14 22 13 14 18 17 20 16 24 32 32 34 28 24 16 8 3 11 18 26 33 37 38 37 35 32 31 31 31 31 29 25 22 22 23 22 22 22 22 20 16 13
9 16 5 12 13 29 22 23 19 22 28 33 34 34 32 27 20 11 2 7 13 18 25 29 32 32 30 30 29 28 29 29 29 26 23 21 18 17 20 19 18 16 17 16
11 23 20 35 26 29 28 24 21 26 30 34 37 36 34 30 23 14 6 4 12 19 24 30 32 31 30 29 28 27 28 28 27 26 26 22 20 19 13 14 18 18 17 18
23 26 27 33 23 13 20 25 22 23 29 32 34 39 38 33 25 18 12 7 12 18 22 26 32 34 33 32 30 28 27 28 28 28 25 25 25 22 21 20 17 16 19 17
11 22 31 40 38 38 33 27 30 34 35 39 39 41 42 38 30 20 17 13 14 19 24 27 33 35 36 33 30 30 30 32 32 30 29 26 25 26 25 24 23 20 18 18
42 38 38 42 39 32 29 26 34 38 39 40 44 47 44 37 30 26 22 19 19 22 26 29 34 38 38 37 35 34 33 33 33 33 32 29 27 25 27 28 26 23 20 17
38 26 29 31 27 27 29 30 33 37 38 39 42 44 44 42 36 30 27 25 24 27 29 34 36 39 40 39 37 34 31 32 32 33 34 32 30 27 27 28 29 28 23 20
28 26 27 33 41 38 22 21 26 31 33 33 38 43 44 42 36 29 28 28 29 31 33 38 40 40 38 33 31 31 30 31 33 34 35 35 32 30 28 28 28 29 28 26
22 18 19 24 25 25 30 22 19 21 26 28 31 38 38 34 31 29 29 31 31 34 39 39 39 34 30 30 30 30 30 31 32 33 35 35 34 33 31 29 28 29 30 30
16 13 17 18 17 12 16 23 22 20 22 23 25 28 28 27 26 27 29 30 32 37 40 37 31 29 28 28 30 29 29 29 30 30 32 33 33 32 32 32 31 28 29 32
11 10 17 17 12 9 4 2 7 12 16 16 15 18 19 19 22 24 28 33 36 35 30 28 28 28 29 29 30 30 29 28 28 28 27 28 31 30 30 30 33 34 30 29
10 12 17 17 17 14 13 16 18 17 14 13 12 10 10 14 20 26 31 31 31 26 26 27 30 31 31 32 32 32 31 30 29 28 27 27 29 29 29 30 31 32 35 35
12 11 12 14 16 18 20 20 19 16 11 7 1 6 13 20 24 24 23 20 22 26 27 30 34 35 35 35 35 35 34 34 33 32 31 29 28 28 27 28 29 30 32 33
11 8 8 12 13 17 15 16 13 8 5 9 13 16 18 17 18 15 16 21 25 28 29 30 31 32 34 34 34 33 33 34 35 34 33 32 30 29 28 26 26 27 30 32
11 10 9 9 9 7 7 8 10 12 14 15 14 12 10 10 12 16 20 21 24 25 25 27 28 28 28 27 27 28 28 30 31 33 33 33 32 32 29 28 25 24 25 28
15 12 11 10 9 11 14 15 16 16 14 10 8 8 10 14 16 17 17 18 18 19 19 20 21 22 23 23 22 22 22 23 24 25 27 28 31 31 31 30 29 27 25 26
14 13 12 13 14 15 15 14 12 10 9 9 11 14 15 15 15 14 15 15 16 18 20 21 21 21 21 20 20 18 18 17 17 17 19 21 23 26 28 28 29 29 27 26
Wind_Direction_850mb
251 270 260 275 276 282 267 240 235 268 264 309 311 326 330 336 351 0 1 9 16 23 27 36 48 62 74 78 81 85 98 110 112 131 149 163 172 178 194 212 228 230 235 230
271 272 25 260 253 252 253 252 245 272 288 208 263 349 354 348 357 3 4 10 18 24 29 36 46 57 66 73 73 77 85 88 93 105 122 132 150 187 203 209 207 216 216 230
258 244 324 323 236 199 247 236 178 230 233 183 292 352 350 353 3 5 14 16 19 23 29 36 43 50 60 68 75 77 79 80 82 81 82 91 124 162 181 194 206 226 224 232
262 4 348 242 239 173 214 244 225 287 262 214 229 173 17 14 15 17 21 23 24 27 33 39 50 56 61 67 71 73 72 72 72 73 77 79 90 140 210 227 220 209 208 220
186 206 294 318 292 184 151 291 215 228 253 290 282 191 294 2 17 24 29 34 34 33 36 39 44 49 56 63 67 71 70 70 68 68 70 73 73 79 99 237 249 250 245 235
136 188 221 238 279 180 114 308 235 160 195 174 159 59 262 8 21 33 33 32 33 33 36 43 45 47 53 56 56 57 57 58 59 59 58 60 60 60 60 65 84 232 247 254
215 276 289 245 215 151 66 249 193 184 190 194 204 186 140 114 60 37 36 35 33 31 33 37 40 43 48 53 56 55 54 52 51 50 50 50 50 53 53 50 47 39 267 244
122 212 280 160 117 165 216 251 271 195 195 206 193 156 143 130 81 51 42 35 30 29 32 34 37 40 43 46 48 49 49 46 43 42 41 36 36 35 34 39 39 37 33 356
189 211 233 200 231 221 265 266 273 233 202 194 176 172 161 149 129 89 52 36 29 28 30 32 36 38 39 41 41 41 41 43 44 41 36 35 31 26 22 21 17 15 7 5
67 286 252 241 248 267 282 275 288 258 207 194 191 179 171 168 155 108 58 37 33 30 29 30 31 32 34 36 35 36 34 32 32 32 32 31 26 19 14 11 10 3 353 345
260 271 258 266 229 333 341 299 257 234 212 203 196 190 184 177 176 166 72 31 28 28 26 24 23 24 26 27 28 28 28 25 21 17 15 13 10 12 13 3 358 355 349 338
238 249 217 285 291 320 309 300 267 229 209 207 209 202 192 189 190 195 198 18 9 14 20 18 17 17 15 11 9 7 10 11 10 8 1 355 357 359 352 355 352 340 336 327
256 296 288 292 276 283 287 293 270 238 228 217 210 208 206 202 203 205 226 329 357 360 1 2 2 4 4 0 355 353 352 353 354 353 352 349 336 329 326 338 333 333 325 319
299 304 288 283 278 290 290 295 268 244 231 228 222 212 211 212 214 218 241 299 337 340 335 343 348 345 352 349 344 341 338 336 335 335 334 330 330 318 307 306 305 314 316 320
322 319 293 291 283 282 287 268 249 236 227 220 218 219 217 216 217 221 248 280 310 320 320 328 334 333 336 337 334 328 324 320 317 313 313 314 313 309 302 292 292 294 303 300
311 307 297 283 282 289 279 258 246 243 233 227 221 218 218 221 219 228 250 273 297 309 309 314 321 323 326 327 325 320 316 310 308 307 304 302 300 297 295 289 281 280 282 287
319 323 315 306 297 287 275 269 264 257 247 237 232 224 220 220 223 233 253 272 292 302 302 309 315 318 320 321 319 317 315 312 311 309 307 304 295 289 285 283 276 271 266 264
310 305 308 303 292 270 266 268 264 260 254 249 238 227 223 225 230 241 257 279 294 298 302 308 312 314 313 313 313 314 313 309 305 302 299 299 296 289 281 276 271 262 260 253
322 320 324 335 327 286 254 275 270 253 244 239 234 227 226 228 236 249 267 282 290 295 303 308 309 308 308 310 311 313 310 307 303 299 295 290 287 284 279 273 269 261 253 251
338 344 343 342 335 314 273 274 270 229 221 218 208 211 218 225 241 260 275 284 295 300 303 303 303 306 307 308 309 309 307 306 304 300 293 289 285 279 274 269 267 266 257 248
3 16 7 1 358 356 351 187 171 183 180 167 172 197 216 237 256 271 284 293 297 299 298 299 301 302 303 301 300 301 301 300 301 301 297 289 285 282 275 268 262 258 258 254
37 33 26 37 51 59 82 105 111 110 123 155 176 199 232 262 278 289 294 296 295 295 300 301 300 300 299 298 295 293 291 292 294 297 300 296 292 286 279 271 264 258 251 247
36 39 49 64 74 87 99 106 114 122 123 127 155 296 298 297 297 297 294 294 295 300 302 300 299 300 299 297 293 289 287 286 286 287 290 291 292 289 283 276 269 259 254 247
26 43 64 71 83 88 92 94 92 78 27 341 326 313 304 299 301 303 301 300 302 306 308 307 306 304 302 300 296 291 288 284 283 282 281 281 281 281 282 279 273 267 258 250
48 71 83 85 74 70 59 38 14 359 347 334 323 316 316 317 314 311 312 315 316 316 317 316 316 316 314 311 307 302 295 288 284 281 279 276 275 274 273 272 271 266 259 253
65 72 69 53 30 9 1 356 346 339 340 345 349 345 338 336 338 338 336 335 335 335 336 338 339 340 340 338 333 326 317 307 297 288 282 277 273 271 269 265 264 261 257 249
41 35 26 18 6 355 348 344 347 355 7 7 357 352 353 355 357 2 7 13 14 15 15 14 12 11 10 10 8 4 356 344 332 318 301 288 279 273 269 264 260 257 254 248